Location: Unspecified
(0.0000°N, 0.0000°E)
Time: 14:09:02
(UTC+00:00)

THORAD DELTA 1 DEB - Pass Details

Date: 20 February 2026
Orbit: 1442 x 1568 km, 101.4° (Epoch: 22 February)

Event Time Altitude Azimuth Distance (km) Brightness Sun altitude
Exits shadow 20:23:49 44° 138° (SE) 2,055 ? -31.9°
Drops below altitude 10° 20:30:24 10° 178° (S) 3,742 ? -33.5°
Sets 20:33:21 0° 183° (S) 4,715 ? -34.2°
